Vertical_Velocity
-1 -1 0 0 0 1 -1 -1 -1 1 -1 -0 -1 -0 -3 -0 -1 -1 -2 -2 -1 -1 -2 -3 -2 -2 -1 -2 -2 -2 -3 -3 -1 -1 -0 -0 -2 -2 -2 -2 -3 -3 -2 -3
-0 1 1 0 1 -0 -1 -1 -1 -0 0 -0 -3 -1 1 -1 -2 -1 -2 -2 -1 -1 -2 -3 -2 -1 -2 -2 -2 -2 -2 -2 -2 -1 -0 -0 -0 0 -1 -1 -1 -2 -1 -2
-1 1 0 0 0 -1 -0 -1 0 -1 -0 -3 -0 -1 0 0 -1 -1 -1 0 -1 -2 -3 -4 -3 -3 -3 -2 -2 -3 -2 -1 -1 -1 -1 -1 -0 -0 -2 -2 -1 -2 -1 -0
1 -1 -0 0 -0 -0 1 -0 -1 -0 -1 -7 4 -9 3 3 1 0 1 -1 -2 -2 -3 -2 -2 -2 -1 -1 -1 -0 -0 -2 -2 -3 -2 -1 -3 -2 -1 -3 -3 -3 -2 -2
-1 -0 -1 -1 -2 -1 -0 -1 -1 -0 -1 -1 5 -6 -8 1 0 -1 -2 -2 -2 -3 -2 -1 -1 -0 -1 -2 -1 -1 -2 -1 -1 -1 -2 -3 -3 -3 -2 -3 -4 -1 -2 -3
-1 -1 -0 -0 0 1 -1 -2 -1 -0 -2 -1 1 0 -11 3 -3 -1 -2 -2 -1 -1 -1 -1 -2 -2 -2 -2 -2 -3 -4 -3 -2 -3 -3 -3 -3 -3 -3 -0 -0 -2 -1 -1
-1 -1 -0 0 1 -1 -1 -1 -6 -5 -1 -3 1 -4 0 1 -1 -1 -1 -0 -1 -2 -2 -2 -3 -3 -0 -0 -1 -0 -1 -3 -3 -3 -2 -1 -1 -2 -3 -3 -3 -2 -2 -0
-1 0 -0 2 1 -0 1 -1 1 -7 -2 -3 7 -3 5 -0 2 -1 -2 -2 -0 -0 -0 -1 -0 2 0 0 -0 0 -2 -2 -2 -2 -1 -1 -3 -4 -3 -4 -4 -4 -3 -3
-4 -1 -1 -1 -0 1 6 3 0 -3 2 -2 1 4 4 3 2 -0 -1 3 2 3 3 3 2 0 0 2 1 -0 -0 -2 -2 -2 -3 -4 -3 -3 -3 -3 -2 -2 -3 -1
-1 -7 1 -0 -0 0 -1 1 -1 1 -6 -4 1 0 -2 6 -0 -2 -2 -2 -3 -1 -1 -0 -1 -2 -4 -2 -1 -2 -2 -4 -4 -3 -3 -3 -4 -3 -2 -1 -1 -1 -1 -1
-2 -0 6 -0 3 -1 0 1 -0 -1 -1 -9 -4 4 0 4 -2 -0 -4 1 3 -1 0 1 1 -1 0 -1 -1 1 -1 -1 -1 0 -1 -1 -1 -1 -1 -2 -4 -3 -3 -3
0 -1 0 -0 2 1 0 1 1 1 -4 2 1 13 6 1 -2 -5 -7 -4 -1 -2 -6 -2 -4 -4 -3 2 -2 -1 -3 -3 -2 -2 -2 -2 -1 -1 -0 -2 -1 -3 -1 -2
-1 -2 -4 -2 -4 2 1 2 0 -0 -1 16 -19 2 -4 -2 -5 -10 9 -3 -3 -5 -2 -2 -5 -3 -2 -3 -0 -0 -1 0 0 1 1 1 -0 -1 -0 -0 -2 -2 -4 -2
-2 5 -2 2 -11 -1 4 -2 -1 -4 -2 -6 12 -1 -10 -8 -11 -1 -5 5 5 -0 -0 -1 -2 -2 -4 -5 -6 -4 -5 -4 -1 2 1 -0 -2 -1 -2 -1 -2 0 -3 -2
-6 5 -5 2 1 -8 -4 1 -6 -1 12 -33 52 -22 7 -8 4 -6 0 -4 -2 -5 -3 -3 -3 -2 -1 -0 -4 -3 -2 -2 -6 -3 -1 -0 -2 -3 -0 -1 -3 -3 0 -3
-3 -6 -2 4 -2 0 -7 4 2 8 7 -22 -5 6 -26 4 6 1 1 0 -1 -2 3 -3 -2 -1 -2 -3 2 -4 0 2 -2 2 0 2 -5 0 -1 -2 -0 -3 -3 -3
1 -4 -4 3 -2 -2 -5 7 6 5 4 -5 -2 -6 -3 -4 5 1 10 -6 -4 -0 -1 -1 -1 -1 0 0 -1 -9 0 0 -5 -1 0 1 -3 -3 -1 -2 -1 0 -3 -3
-5 4 -9 -4 0 -13 -4 -1 3 -1 8 -1 -3 4 1 1 -1 1 2 -8 7 -1 -5 -1 -3 0 2 0 -1 -4 -4 -2 -6 -2 -4 -2 -1 -4 1 -1 -1 0 -3 -2
4 -8 -10 -5 -7 8 10 -19 6 -1 -18 1 1 -2 -0 -3 -6 26 -18 -5 -7 2 7 3 4 1 2 8 9 -0 -4 2 2 -1 -3 -5 1 1 1 0 -1 0 -7 -0
5 1 -5 -3 -8 -6 -4 5 0 0 3 -0 8 2 1 1 -20 25 -1 5 4 0 -4 -8 -6 -8 -4 -2 -4 -7 -4 -3 1 -4 -5 -1 1 -2 -1 1 3 3 -1 -2
-1 2 -3 0 -7 6 -15 -5 1 3 -7 -3 -4 -1 -2 -8 -11 -8 6 -2 -6 -5 -4 -1 -2 -3 3 0 -0 -5 -2 4 -1 -2 -3 1 3 -3 1 0 5 -0 -0 -3
2 -1 2 5 -2 -8 1 -1 9 -2 5 -5 0 -2 -8 -6 -3 -8 -5 -3 -5 -9 -7 -1 -5 -1 1 1 -2 -4 4 1 -3 -2 -1 -2 -0 0 -1 -1 -0 -1 -2 -3
-2 6 -2 2 3 -4 -8 5 -3 -7 2 6 -8 4 -5 0 4 -0 -3 -0 -1 4 -1 0 -3 -6 2 2 2 -3 3 4 3 -1 -3 -3 -0 1 2 -5 -3 -2 3 0
-2 7 2 -6 14 3 -3 -2 -7 -3 -6 -0 2 -6 -3 -11 -6 -6 -9 -5 -7 -4 -5 1 2 0 -4 1 0 1 1 1 -3 -3 -1 -1 -1 2 3 1 -2 -3 -1 1
-1 1 -3 -4 3 -1 7 0 -2 1 1 2 3 -3 1 2 -3 2 -7 -2 -1 -2 -4 0 1 0 -4 -1 -0 1 2 7 -1 -6 -4 -1 -0 -1 -2 3 1 0 3 1
-4 -4 -6 2 -2 -5 8 -2 1 -3 -2 1 -6 0 3 -1 -5 -1 -3 -1 -3 -2 2 1 -1 -1 0 -2 -2 0 2 2 -1 -2 -3 -1 -3 2 1 -2 -5 8 -1 -3
Height
5817 5819 5819 5820 5820 5820 5820 5819 5818 5817 5817 5816 5815 5815 5814 5813 5812 5811 5809 5807 5804 5802 5799 5796 5793 5789 5785 5781 5778 5774 5771 5768 5765 5762 5759 5755 5752 5749 5745 5741 5735 5731 5725 5720
5814 5814 5815 5815 5815 5815 5815 5814 5813 5812 5811 5811 5810 5809 5808 5807 5805 5804 5802 5800 5797 5794 5791 5787 5784 5781 5777 5774 5771 5768 5765 5762 5759 5756 5753 5750 5747 5744 5740 5736 5732 5728 5723 5718
5809 5810 5810 5810 5809 5809 5809 5808 5807 5807 5806 5805 5804 5803 5802 5801 5798 5797 5794 5792 5788 5785 5782 5779 5775 5772 5769 5766 5763 5760 5757 5754 5752 5749 5745 5742 5739 5736 5734 5731 5727 5723 5719 5715
5804 5804 5804 5804 5804 5803 5803 5802 5802 5801 5800 5799 5798 5795 5794 5794 5791 5789 5786 5782 5779 5775 5772 5769 5766 5764 5761 5758 5756 5753 5750 5747 5744 5741 5738 5734 5731 5728 5725 5723 5720 5717 5714 5711
5800 5799 5799 5799 5798 5798 5798 5796 5795 5793 5792 5791 5791 5788 5784 5784 5781 5778 5775 5772 5769 5766 5763 5761 5758 5756 5754 5751 5748 5744 5742 5739 5736 5733 5730 5726 5722 5720 5717 5714 5712 5709 5707 5704
5793 5793 5793 5793 5793 5792 5790 5789 5787 5786 5785 5783 5782 5779 5776 5776 5772 5769 5765 5762 5760 5757 5755 5753 5750 5748 5745 5742 5738 5735 5731 5728 5725 5722 5719 5715 5712 5709 5706 5704 5701 5699 5697 5695
5788 5788 5787 5787 5786 5784 5783 5781 5779 5778 5776 5775 5773 5770 5768 5765 5763 5760 5757 5755 5752 5749 5747 5745 5742 5739 5736 5732 5727 5724 5721 5717 5714 5710 5707 5705 5701 5697 5694 5691 5688 5687 5685 5684
5782 5782 5781 5780 5778 5776 5774 5773 5771 5767 5766 5764 5762 5760 5759 5756 5754 5752 5750 5746 5742 5739 5737 5733 5731 5728 5724 5720 5716 5712 5709 5706 5703 5699 5695 5691 5687 5684 5681 5678 5676 5673 5671 5669
5773 5773 5772 5771 5770 5768 5766 5764 5762 5758 5756 5753 5753 5752 5750 5749 5749 5746 5743 5738 5735 5731 5727 5725 5721 5717 5712 5708 5704 5701 5698 5693 5689 5686 5682 5678 5674 5670 5666 5663 5661 5658 5656 5654
5765 5762 5763 5762 5761 5760 5757 5756 5754 5751 5747 5745 5744 5743 5742 5741 5739 5735 5731 5727 5724 5721 5718 5714 5709 5704 5700 5696 5692 5688 5683 5679 5674 5669 5666 5662 5659 5656 5652 5649 5646 5643 5641 5639
5756 5755 5757 5754 5753 5751 5750 5748 5747 5744 5742 5737 5735 5734 5727 5727 5726 5722 5718 5714 5713 5710 5704 5699 5695 5690 5686 5681 5677 5672 5668 5663 5659 5654 5649 5644 5640 5637 5634 5631 5629 5626 5624 5621
5749 5746 5746 5745 5743 5742 5741 5740 5738 5735 5733 5730 5727 5724 5718 5719 5715 5711 5705 5704 5700 5693 5689 5684 5679 5674 5670 5666 5661 5656 5651 5646 5641 5636 5631 5627 5622 5619 5616 5613 5610 5607 5605 5602
5741 5739 5738 5735 5736 5734 5732 5731 5729 5726 5723 5721 5717 5712 5709 5704 5700 5695 5695 5690 5683 5679 5674 5669 5663 5657 5652 5646 5642 5637 5632 5627 5622 5617 5612 5608 5604 5600 5596 5593 5590 5588 5586 5584
5728 5727 5728 5727 5724 5722 5722 5719 5716 5713 5710 5710 5704 5707 5696 5692 5683 5681 5677 5674 5670 5663 5658 5652 5646 5640 5634 5629 5623 5617 5611 5605 5601 5597 5591 5588 5583 5580 5576 5572 5570 5567 5565 5563
5718 5717 5717 5716 5714 5710 5708 5706 5701 5699 5699 5693 5698 5688 5681 5674 5673 5664 5660 5655 5650 5645 5639 5634 5628 5621 5615 5609 5603 5598 5593 5586 5581 5578 5572 5567 5563 5559 5555 5551 5548 5545 5543 5541
5707 5705 5704 5703 5701 5699 5697 5693 5690 5688 5684 5678 5677 5672 5663 5662 5656 5651 5645 5637 5632 5626 5621 5615 5608 5602 5595 5589 5582 5575 5571 5565 5560 5556 5551 5545 5540 5537 5533 5530 5526 5523 5520 5519
5694 5692 5689 5687 5683 5681 5681 5679 5677 5674 5669 5664 5660 5655 5650 5644 5639 5632 5626 5620 5615 5608 5602 5595 5588 5581 5575 5568 5559 5554 5552 5545 5537 5533 5528 5522 5516 5512 5508 5505 5501 5499 5495 5494
5679 5678 5674 5672 5668 5665 5662 5659 5654 5653 5651 5644 5640 5637 5632 5627 5622 5613 5604 5601 5596 5589 5581 5574 5565 5560 5553 5546 5537 5530 5526 5519 5511 5508 5501 5496 5491 5486 5482 5477 5473 5470 5467 5466
5666 5661 5657 5655 5651 5653 5648 5642 5639 5634 5630 5627 5621 5616 5611 5606 5603 5594 5580 5577 5571 5564 5557 5550 5542 5535 5529 5523 5513 5504 5501 5495 5487 5480 5475 5469 5464 5459 5455 5451 5447 5444 5440 5438
5651 5646 5643 5639 5635 5633 5631 5624 5621 5614 5611 5610 5602 5598 5592 5584 5581 5583 5561 5558 5552 5543 5536 5528 5521 5513 5506 5499 5489 5481 5476 5469 5462 5455 5449 5444 5438 5432 5429 5425 5421 5417 5413 5412
5633 5629 5626 5622 5617 5618 5614 5609 5606 5601 5597 5588 5585 5578 5573 5567 5558 5557 5545 5536 5529 5523 5515 5505 5497 5489 5482 5473 5463 5456 5450 5443 5435 5428 5422 5418 5415 5410 5407 5404 5401 5397 5395 5393
5618 5614 5612 5607 5601 5597 5597 5590 5588 5581 5574 5567 5563 5558 5550 5545 5539 5533 5528 5518 5508 5501 5495 5487 5476 5467 5458 5448 5437 5432 5426 5419 5412 5407 5403 5401 5399 5394 5390 5387 5386 5384 5380 5378
5604 5601 5597 5593 5587 5581 5577 5572 5566 5561 5559 5550 5544 5538 5528 5524 5520 5513 5506 5499 5490 5479 5469 5461 5451 5443 5437 5427 5419 5409 5405 5400 5394 5390 5388 5386 5383 5381 5378 5373 5371 5369 5367 5363
5586 5583 5580 5574 5573 5567 5558 5555 5548 5544 5539 5534 5524 5518 5511 5502 5499 5492 5485 5477 5467 5459 5450 5441 5430 5420 5412 5407 5402 5395 5388 5381 5375 5373 5370 5369 5366 5364 5361 5358 5355 5352 5350 5347
5567 5567 5561 5557 5554 5550 5544 5538 5532 5529 5523 5517 5510 5503 5497 5486 5481 5471 5463 5454 5444 5434 5426 5417 5407 5399 5391 5386 5380 5376 5372 5365 5358 5354 5351 5350 5347 5345 5342 5340 5337 5335 5333 5330
5549 5549 5544 5541 5536 5532 5530 5524 5517 5511 5505 5498 5491 5486 5479 5467 5457 5450 5440 5432 5423 5415 5406 5397 5388 5380 5372 5366 5360 5357 5354 5347 5340 5336 5334 5333 5330 5327 5323 5319 5319 5319 5315 5311